Location: Newark
(41.8083°N, 72.2500°W)
Time: 11:05:41
(UTC+00:00)

Explorer 11/Cluster Stage 4 - Pass Details

Date: 08 December 2021
Orbit: 467 x 1255 km, 28.8° (Epoch: 24 January)

Event Time Altitude Azimuth Distance (km) Brightness Sun altitude
Rises 05:53:48 0° 233° (SW) 3,059 - -65.6°
Reaches altitude 10° 05:56:31 10° 217° (SW) 2,278 - -65.2°
Maximum altitude 06:00:36 22° 169° (SSE) 1,802 - -64.7°
Drops below altitude 10° 06:05:20 10° 122° (ESE) 2,703 - -64.0°
Sets 06:08:54 0° 108° (ESE) 3,806 - -63.5°
